www.pogodaiklimat.ru

Погода и климат >> Архив погоды >> Кипр >> База ВВС Gecitkale


ПОГОДА на Базе ВВС Gecitkale

  • Прогноз погоды на Базе ВВС Gecitkale
  • Монитор погоды на Базе ВВС Gecitkale

АРХИВ ПОГОДЫ на Базе ВВС Gecitkale

Время (UTC), дата Ветер
(напр.,м/с)
 
Видим.   Явления Облачность Т
(С)
Тd
(С)
f
(%)
Тe
(С)
Тes
(С)
Комфортность P
(гПа)
Po
(гПа)
Тmin
(С)
Tmax
(С)
R
(мм)
R24
(мм)
S
(см)
21 10.08 штиль 0 10 км ясно +24.2 +16.6 63 +28 +28 душно 1006.1 1000.7
00 11.08 С 3 10 км ясно +22.2 +17.7 76 +27 +27 душно 1005.9 1000.5
03 11.08 штиль 0 10 км ясно +21.6 +19.6 88 +27 +27 душно 1005.8 1000.3
06 11.08 штиль 0 10 км ясно +27.3 +21.5 71 +35 +45 очень
душно
1006.3 1000.9 +21.3
09 11.08 СЗ 3 10 км ясно +36.8 +9.3 19 +35 +51 опасность
солнечного
удара
1006.3 1001.1
12 11.08 З 4 10 км ясно +40.0 +3.5 11 +37 +46 очень
жарко
1005.2 1000.1
15 11.08 ЮВ 3 10 км ясно +34.6 +15.7 32 +37 +38 очень
душно
1004.9 999.7
18 11.08 штиль 0 10 км ясно +27.8 +20.8 66 +35 +35 очень
душно
1005.4 1000.1 +40.0
21 11.08 штиль 0 10 км ясно +22.2 +17.6 75 +27 +27 душно 1005.9 1000.5
00 12.08 ЮВ 2 10 км ясно +23.0 +16.9 69 +28 +28 душно 1005.5 1000.0
03 12.08 штиль 0 10 км ясно +20.6 +18.1 86 +24 +24 комфорт 1005.6 1000.1
06 12.08 штиль 0 10 км ясно +28.4 +18.8 56 +34 +44 очень
душно
1006.1 1000.8 +20.0
09 12.08 штиль 0 10 км ясно +35.9 +17.9 35 +40 +65 опасность
солнечного
удара
1005.7 1000.5
12 12.08 ЮВ 5 10 км 1/1 750 м
[Cu hum]
+37.4 +17.5 31 +40 +48 очень
душно
1005.2 1000.0
15 12.08 Ю 5 10 км 1/1 750 м
[Cu hum]
+34.9 +16.4 33 +37 +38 очень
душно
1004.5 999.3
18 12.08 ЮВ 2 10 км ясно +29.9 +17.4 47 +34 +34 очень
душно
1004.8 999.5 +38.0
21 12.08 штиль 0 10 км ясно +26.4 +18.9 63 +31 +31 душно 1005.8 1000.4
00 13.08 штиль 0 10 км ясно +20.8 +15.0 69 +23 +23 комфорт 1005.6 1000.1
03 13.08 штиль 0 10 км ясно +19.4 +14.8 75 +21 +21 комфорт 1005.7 1000.2
06 13.08 З 2 10 км ясно +28.1 +17.1 51 +32 +40 душно 1006.4 1001.1 +19.3
09 13.08 штиль 0 10 км ясно +36.4 +8.9 19 +35 +60 опасность
солнечного
удара
1005.8 1000.5
12 13.08 Ю 4 10 км ясно +36.6 +15.7 29 +38 +48 очень
душно
1005.0 999.8
15 13.08 СЗ 8 10 км ясно +36.1 +14.9 28 +37 +38 душно 1004.2 999.0
18 13.08 ЮВ 2 10 км ясно +28.9 +15.0 43 +31 +31 жарко 1005.4 1000.0 +40.2
21 13.08 В 2 10 км ясно +26.1 +22.5 81 +34 +34 очень
душно
1006.3 1000.9
00 14.08 штиль 0 10 км ясно +23.9 +19.8 78 +29 +29 душно 1006.1 1000.7
03 14.08 штиль 0 10 км ясно +21.4 +17.9 80 +26 +26 душно 1006.2 1000.8
06 14.08 штиль 0 10 км ясно +27.9 +20.0 62 +34 +44 очень
душно
1007.0 1001.6 +21.0
09 14.08 В 2 10 км 1/1 750 м
[Cu hum]
+34.9 +16.5 34 +38 +56 опасность
солнечного
удара
1006.5 1001.3
12 14.08 СВ 2 10 км 1/1 750 м
[Cu hum]
+37.2 +16.9 30 +40 +53 опасность
солнечного
удара
1005.5 1000.3
15 14.08 С 7 10 км 1/1 750 м
[Cu hum]
+33.0 +20.5 48 +40 +40 очень
душно
1005.5 1000.2
18 14.08 СЗ 3 10 км 4/1 750 м
[Cu hum Ci fib]
+28.3 +21.3 66 +36 +36 очень
душно
1006.8 1001.5 +37.3
21 14.08 В 2 10 км 3/3 750 м
[Cu hum]
+26.7 +20.9 71 +34 +34 очень
душно
1007.3 1001.9
00 15.08 В 2 10 км 1/1 750 м
[Cu hum]
+25.5 +20.6 74 +32 +32 очень
душно
1007.2 1001.8
03 15.08 штиль 0 10 км 1/1 750 м
[Cu hum]
+22.7 +19.3 81 +29 +29 очень
душно
1007.3 1001.8
06 15.08 штиль 0 10 км 4/4 750 м
[Cu hum]
+27.0 +21.1 70 +34 +40 очень
душно
1007.7 1002.3 +22.0
09 15.08 штиль 0 10 км 3/3 900 м
[Cu hum]
+33.6 +16.0 35 +36 +53 опасность
солнечного
удара
1008.3 1003.1
12 15.08 СЗ 5 10 км 4/4 900 м
[Cu hum]
+34.3 +19.3 41 +39 +44 очень
душно
1007.1 1001.8
15 15.08 СЗ 6 10 км 5/5 900 м
[Cu med, cong]
+31.3 +19.4 49 +37 +37 очень
душно
1007.2 1001.9
18 15.08 С 4 10 км 1/1 900 м
[Cu hum]
+27.6 +20.2 64 +34 +34 очень
душно
1008.2 1002.9 +35.0
21 15.08 З 2 10 км 1/1 900 м
[Cu hum]
+25.5 +19.5 69 +31 +31 очень
душно
1009.4 1003.9
00 16.08 штиль 0 10 км ясно +22.6 +18.0 75 +28 +28 душно 1008.7 1003.3
03 16.08 штиль 0 10 км ясно +19.9 +17.1 84 +22 +22 комфорт 1008.6 1003.1
06 16.08 З 3 10 км ясно +26.8 +19.5 64 +32 +38 очень
душно
1008.9 1003.5 +19.0
09 16.08 С 2 10 км 1/1 750 м
[Cu hum]
+33.4 +16.7 37 +36 +53 опасность
солнечного
удара
1008.7 1003.4
12 16.08 С 6 10 км 1/1 750 м
[Cu hum]
+35.4 +17.3 34 +38 +44 очень
душно
1007.2 1002.0
15 16.08 С 5 10 км 1/1 750 м
[Cu hum]
+33.1 +20.0 46 +39 +40 очень
душно
1006.8 1001.5
18 16.08 штиль 0 10 км 1/1 750 м
[Cu hum]
+28.1 +21.5 67 +36 +36 очень
душно
1007.7 1002.4 +37.0
21 16.08 штиль 0 10 км ясно +26.5 +20.7 70 +33 +33 очень
душно
1008.0 1002.6
00 17.08 штиль 0 10 км ясно +24.8 +20.6 77 +31 +31 очень
душно
1007.7 1002.3
03 17.08 Ю 3 10 км 5/5 450 м
[St]
+22.7 +19.9 84 +29 +29 очень
душно
1007.7 1002.2
06 17.08 ЮЗ 2 10 км ясно +26.9 +21.2 71 +34 +41 очень
душно
1008.3 1002.9 +23.0
09 17.08 штиль 0 10 км 1/1 750 м
[Cu hum]
+33.5 +20.0 45 +40 +62 опасность
солнечного
удара
1007.9 1002.7
12 17.08 ЮВ 4 10 км 4/4 750 м
[Cu hum]
+33.1 +20.4 47 +40 +45 очень
душно
1006.7 1001.4
15 17.08 ЮВ 2 10 км 1/1 750 м
[Cu hum]
+32.6 +20.4 49 +39 +41 очень
душно
1005.5 1000.2
18 17.08 С 4 10 км 1/1 750 м
[Cu hum]
+28.3 +21.5 67 +36 +36 очень
душно
1005.7 1000.3 +36.7

 

Местоположение метеостанции База ВВС Gecitkale (Кипр): широта 35.23 долгота 33.73 высота над уровнем моря 45 м.

В архиве по умолчанию представлена погода на Базе ВВС Gecitkale за последнюю неделю. Архивные данные за месяц целиком и за предыдущие месяцы, начиная с января 2011 года, Вы можете получить, выбрав интересующий диапазон дат из раскрывающегося списка и нажав кнопку "Ввод!".


*Определитесь, кто Вы:
робот инопланетянин человек

Внимание! Время в таблицах - всемирное. Для получения местного времени необходимо прибавить поправку, которая равна 2 ч.

Смотрите также архив погоды в соседних городах и на ближайших метеорологических станциях:

Погода в Лефконико (Кипр) (2 км)
Погода в Искеле (Кипр) (15 км)
Погода в Никосии (Кипр) (23 км)
Погода в Фамагусте (Кипр) (23 км)
Погода в Аталассе (Кипр) (31 км)
Погода в Unknown (Кипр) (35 км)
Погода в Киринии (Кипр) (40 км)
Погода в Ларнаке (Кипр) (40 км)
Погода в Гиалусе (Кипр) (42 км)
Погода в Акденизе (Кипр) (69 км)

Пояснения к столбцам:

Ветер - указаны скорость ветра в м/с - средняя за 10 мин, порывы в срок и между сроками (в фигурных скобках) и направление, откуда дует ветер: С - северный, СВ - северо-восточный, В - восточный, ЮВ - юго-восточный, Ю - южный, ЮЗ - юго-западный, З - западный, СЗ - северо-западный.
Видимость - горизонтальная дальность видимости в метрах или километрах. При видимости от 1 до 10 км при отсутствии осадков обычно наблюдается дымка, при ухудшении видимости до 1 км и менее - туман. В сухую погоду видимость может ухудшаться дымом, пылью или мглою.
Явления - указаны атмосферные явления, наблюдавшиеся в срок или в последний час перед сроком; фигурными скобками обозначены явления, наблюдавшиеся между сроками (за 1-3 часа до срока); квадратными скобками обозначены град или гололедные отложения с указанием их диаметра в мм.
Облачность - указаны через наклонную черту общая и нижняя облачность в баллах и высота нижней границы облаков в метрах; квадратными скобками обозначены формы облаков: Ci - перистые, Cs - перисто-слоистые, Cc - перисто-кучевые, Ac - высококучевые, As - высокослоистые, Sc - слоисто-кучевые, Ns - слоисто-дождевые, Cu - кучевые, Cb - кучево-дождевые. Подробнее классификацию облаков см. в Атласе облаков (PDF).
T - Температура воздуха - температура, измеренная на высоте 2 м над землей.
Td - Температура точки росы - температура, при понижении до которой содержащийся в воздухе водяной пар достигнет насыщения.
f - Относительная влажность воздуха - влажноcть воздуха, измеренная на высоте 2 м над землей.
Te - Эффективная температура - температура, которую ощущает одетый по сезону человек в тени. Характеристика душности погоды. При расчете учитывается влияние влажности воздуха и скорости ветра на теплоощущения человека.
Tes - Эффективная температура на солнце - температура, которую ощущает человек, с поправкой на солнечный нагрев. Характеристика знойности погоды. Зависит от высоты солнца над горизонтом, облачности и скорости ветра. Ночью, в пасмурную погоду, а также при ветре 12 м/с и более поправка равна нулю.
P - Атмосферное давление - приведенное к уровню моря атмосферное давление.
Po - Атмосферное давление - измеренное на уровне метеостанции атмосферное давление.
Tmin - Минимальная температура - минимум температуры воздуха на высоте 2 м над землей.
Tmax - Максимальная температура - максимум температуры воздуха на высоте 2 м над землей.
R - Количество осадков - Количество выпавших осадков за период времени, мм. При наведении курсора мыши на число - период времени, за который выпало указанное количество осадков.
R24 - Количество осадков - Количество выпавших осадков за 24 часа, мм.
S - Снежный покров - Высота снежного покрова, см. При наведении курсора мыши на число - состояние снежного покрова и степень покрытия местности в баллах.